Airfield :
LOGIN :

Register | Disclaimer

   EN    FR    IT 

 










Legend :    VFR   Marginal VFR   IFR   Intensive IFR   Very Intensive IFR
Visi :
Ceiling :
>= 8 km
>= 3000ft
5 to 8 km
1000 to 3000 ft
1500m to 5 km
500 to 1000 ft
800 to 1500m
200 to 500 ft
< 800m
< 200 ft
Symbols :   Thunderstorms  Fog  Heavy snow  Heavy precipitations  Wind > 20 kt
SIGMETs :     Misc.  Thunderstorms  Icing  Turbulence  Mountain Waves  Volcanic Ashes







- Airport Elevation : 38 ft
- IATA code : TRE
- Download approach charts


EGPU - Tiree

CURRENT METAR :
  • 171750Z AUTO 26011KT 160V220 9999 BKN016/// 15/12 Q1004

EXPIRED METARs :
  • 171720Z 25011KT 9999 BKN014 15/12 Q1004
  • 171650Z AUTO 26013KT 170V230 9999 BKN017/// 16/13 Q1004
  • 171620Z 27014KT 9999 SCT019 16/12 Q1004
  • 171550Z AUTO 27013KT 170V230 9999 FEW011/// BKN015/// 16/13 Q1004
  • 171520Z AUTO 27015KT 9999 FEW006/// BKN010/// 15/13 Q1004

Expired Forecast.
No reported NOTAMs for that airfield.



MET'MAP, your aeronautical weather chart ! - Copyright ORBIFLY December 2007 - Disclaimer

ORBIFLY MET'MAP TEAM :

Programming & Development : Alexandra Zaïnal
Concept & Development : Baudouin d'Aumeries
Co-Development & Prog : Marc-Olivier Méhu
Technical & hardware support : Manuel Goepfert

Contact : metmap@orbifly.com




SOURCES & CREDITS :

   NOAA